TimeCST,TemperatureF,Dew PointF,Humidity,Sea Level PressureIn,VisibilityMPH,Wind Direction,Wind SpeedMPH,Gust SpeedMPH,PrecipitationIn,Events,Conditions,WindDirDegrees,DateUTC
12:54 AM,12.9,9.0,84,30.40,10.0,Calm,Calm,-,N/A,,Clear,0,2013-01-23 06:54:00
1:54 AM,12.0,8.1,84,30.40,10.0,Calm,Calm,-,N/A,,Clear,0,2013-01-23 07:54:00
2:54 AM,12.9,8.1,81,30.39,10.0,Calm,Calm,-,N/A,,Clear,0,2013-01-23 08:54:00
3:54 AM,12.0,8.1,84,30.35,10.0,Calm,Calm,-,N/A,,Clear,0,2013-01-23 09:54:00
4:54 AM,12.9,8.1,81,30.35,10.0,Calm,Calm,-,N/A,,Clear,0,2013-01-23 10:54:00
5:54 AM,10.9,6.1,81,30.34,10.0,Calm,Calm,-,N/A,,Clear,0,2013-01-23 11:54:00
6:54 AM,12.0,7.0,80,30.34,9.0,Calm,Calm,-,N/A,,Clear,0,2013-01-23 12:54:00
7:54 AM,12.9,9.0,84,30.34,9.0,Calm,Calm,-,N/A,,Clear,0,2013-01-23 13:54:00
8:54 AM,19.0,12.0,74,30.32,10.0,Calm,Calm,-,N/A,,Clear,0,2013-01-23 14:54:00
9:54 AM,27.0,15.1,61,30.31,10.0,West,5.8,-,N/A,,Clear,260,2013-01-23 15:54:00
10:54 AM,30.0,16.0,56,30.29,10.0,Calm,Calm,-,N/A,,Clear,0,2013-01-23 16:54:00
11:54 AM,35.1,18.0,50,30.25,10.0,WNW,5.8,-,N/A,,Partly Cloudy,290,2013-01-23 17:54:00
12:54 PM,37.0,18.0,46,30.21,10.0,WSW,5.8,-,N/A,,Scattered Clouds,240,2013-01-23 18:54:00
1:54 PM,39.9,19.0,43,30.19,10.0,West,8.1,-,N/A,,Clear,270,2013-01-23 19:54:00
2:54 PM,43.0,19.0,38,30.18,10.0,West,12.7,-,N/A,,Clear,280,2013-01-23 20:54:00
3:54 PM,42.8,19.4,39,30.14,10.0,West,9.2,-,N/A,,Clear,260,2013-01-23 21:54:00
4:54 PM,39.0,19.9,46,30.19,10.0,West,4.6,-,N/A,,Scattered Clouds,280,2013-01-23 22:54:00
5:54 PM,30.9,19.9,64,30.21,10.0,Calm,Calm,-,N/A,,Scattered Clouds,0,2013-01-23 23:54:00
6:54 PM,28.0,19.0,69,30.25,10.0,West,3.5,-,N/A,,Clear,280,2013-01-24 00:54:00
7:54 PM,34.0,19.9,56,30.27,10.0,WNW,5.8,-,N/A,,Clear,290,2013-01-24 01:54:00
8:54 PM,30.9,19.9,64,30.30,10.0,NNW,6.9,-,N/A,,Clear,340,2013-01-24 02:54:00
9:54 PM,32.0,17.1,54,30.32,10.0,NNW,11.5,-,N/A,,Clear,330,2013-01-24 03:54:00
10:54 PM,30.0,12.9,49,30.35,10.0,NNW,10.4,17.3,N/A,,Clear,340,2013-01-24 04:54:00
11:54 PM,28.0,14.0,56,30.38,10.0,North,6.9,-,N/A,,Clear,350,2013-01-24 05:54:00